Regional Weather Roundup
Issued by NWS Albany, NY

Home | Current Version | Previous Version | Text Only | Print | Product List | Glossary On
Versions: 1 2 3 4 5 6 7 8 9 10 11 12 13 14 15 16 17 18 19 20 21 22 23 24 25 26 27 28 29 30 31 32 33 34 35 36 37 38 39 40 41 42 43 44 45 46 47 48 49 50
000
ASUS41 KALY 190210
RWRALY

NEW YORK STATE HOURLY WEATHER ROUNDUP
NATIONAL WEATHER SERVICE ALBANY NY
1000 PM EDT SAT APR 18 2015

NOTE: "FAIR" INDICATES FEW OR NO CLOUDS BELOW 12,000 FEET WITH NO
SIGNIFICANT WEATHER AND/OR NO OBSTRUCTIONS TO VISIBILITY.

NYZ032-033-038>043-046>054-057>066-NYZ062>081-190300-
EAST


CITY           SKY/WX    TMP DP  RH WIND       PRES   REMARKS
ALBANY         FAIR      58  15  18 N13G22    30.07R
GLENS FALLS    CLEAR     47  32  56 NE9       30.11R
POUGHKEEPSIE   CLEAR     64  29  26 N13       30.02R
NEWBURGH       CLEAR     63  30  29 N9G16     30.04R
MONTGOMERY     CLEAR     62  28  27 NW13      30.03R
WHITE PLAINS   CLEAR     66  28  24 N15G21    29.99R
ISLIP          PTCLDY    57  43  59 N8        29.97R
NEW YORK CITY  PTCLDY    69  30  23 N17G25    29.97R
CENTRAL PARK   PTCLDY    70  27  20 VRB3G21   30.01R
$$

NYZ005>009-017-018-044>046-055-056-190300-
CENTRAL


CITY           SKY/WX    TMP DP  RH WIND       PRES   REMARKS
FULTON         CLEAR     44  29  55 N8        30.15R
SYRACUSE       PTCLDY    51  24  34 NW7       30.14R
ROME           CLEAR     52  24  33 N9        30.14R
ELMIRA         CLEAR     47  29  49 SE3       30.14R
BINGHAMTON     CLEAR     50  27  40 N9        30.12R
MONTICELLO     CLEAR     54  27  35 N12       30.10R
$$

NYZ026>034-041>043-190300-
NORTH


CITY           SKY/WX    TMP DP  RH WIND       PRES   REMARKS
WATERTOWN      CLEAR     47  28  47 NE8       30.18R
FORT DRUM      NOT AVBL
MASSENA        CLEAR     46  28  49 N8        30.21R
SARANAC LAKE   CLEAR     43  26  51 VRB6      30.12R
PLATTSBURGH    PTCLDY    45  35  68 N13       30.15R
$$

NYZ001>004-010>016-019>021-190300-
WEST


CITY           SKY/WX    TMP DP  RH WIND       PRES   REMARKS
NIAGARA FALLS  PTCLDY    50  27  40 N8        30.17R
BUFFALO        PTCLDY    53  24  32 N6        30.16R
DUNKIRK        CLEAR     50  28  42 NE3       30.16R
JAMESTOWN      CLEAR     52  21  30 NE9       30.15S
WELLSVILLE     CLEAR     50  24  36 N7        30.15R
ROCHESTER      CLEAR     53  23  31 N7        30.16R
PENN YAN       CLEAR     52  24  33 NW5       30.15R
$$

             KEY
       WCI = WIND CHILL INDEX
       VSB = VISIBILITY
       HX  = HEAT INDEX
$$



USA.gov is the U.S. government's official web portal to all federal, state and local government web resources and services.